Time,TemperatureF,DewpointF,PressureIn,WindDirection,WindDirectionDegrees,WindSpeedMPH,WindSpeedGustMPH,Humidity,HourlyPrecipIn,Conditions,Clouds,dailyrainin,SoftwareType,DateUTC
2013-07-02 00:04:00,69.6,40.8,29.47,South,178,0.0,0.0,35,0.00,,CLR,0.00,VWS V14.00,2013-07-02 07:04:00,
2013-07-02 00:10:00,69.4,40.6,29.47,South,178,0.0,0.0,35,0.00,,CLR,0.00,VWS V14.00,2013-07-02 07:10:00,
2013-07-02 00:16:00,69.3,41.2,29.47,South,178,0.0,0.0,36,0.00,,CLR,0.00,VWS V14.00,2013-07-02 07:16:00,
2013-07-02 00:22:00,69.1,41.0,29.47,SSE,150,0.0,0.0,36,0.00,,CLR,0.00,VWS V14.00,2013-07-02 07:22:00,
2013-07-02 00:27:00,69.1,41.0,29.47,SSE,150,0.0,0.0,36,0.00,,CLR,0.00,VWS V14.00,2013-07-02 07:27:00,
2013-07-02 00:33:00,68.9,40.9,29.47,SSE,150,0.0,0.0,36,0.00,,CLR,0.00,VWS V14.00,2013-07-02 07:33:00,
2013-07-02 00:38:00,68.7,40.7,29.47,SSE,150,0.0,0.0,36,0.00,,CLR,0.00,VWS V14.00,2013-07-02 07:38:00,
2013-07-02 00:44:00,68.4,41.1,29.47,SSE,150,0.0,0.0,37,0.00,,CLR,0.00,VWS V14.00,2013-07-02 07:44:00,
2013-07-02 00:50:00,68.0,40.8,29.47,SSE,150,0.0,0.0,37,0.00,,CLR,0.00,VWS V14.00,2013-07-02 07:50:00,
2013-07-02 00:55:00,67.6,41.2,29.47,SSE,150,0.0,0.0,38,0.00,,CLR,0.00,VWS V14.00,2013-07-02 07:55:00,
2013-07-02 01:01:00,67.3,41.5,29.50,SSE,150,0.0,0.0,39,0.00,,CLR,0.00,VWS V14.00,2013-07-02 08:01:00,
2013-07-02 01:07:00,66.9,41.2,29.50,SSE,150,0.0,0.0,39,0.00,,CLR,0.00,VWS V14.00,2013-07-02 08:07:00,
2013-07-02 01:12:00,66.7,41.7,29.50,SSE,150,0.0,0.0,40,0.00,,CLR,0.00,VWS V14.00,2013-07-02 08:12:00,
2013-07-02 01:17:00,66.4,41.3,29.50,SSE,150,0.0,0.0,40,0.00,,CLR,0.00,VWS V14.00,2013-07-02 08:17:00,
2013-07-02 01:23:00,66.2,41.8,29.50,SSE,150,0.0,0.0,41,0.00,,CLR,0.00,VWS V14.00,2013-07-02 08:23:00,
2013-07-02 01:28:00,66.0,42.3,29.50,SSE,150,0.0,0.0,42,0.00,,CLR,0.00,VWS V14.00,2013-07-02 08:28:00,
2013-07-02 01:34:00,65.8,42.1,29.50,SSE,150,0.0,0.0,42,0.00,,CLR,0.00,VWS V14.00,2013-07-02 08:34:00,
2013-07-02 01:40:00,65.7,42.6,29.50,SSE,150,0.0,0.0,43,0.00,,CLR,0.00,VWS V14.00,2013-07-02 08:40:00,
2013-07-02 01:46:00,65.7,42.6,29.50,SSE,150,0.0,0.0,43,0.00,,CLR,0.00,VWS V14.00,2013-07-02 08:46:00,
2013-07-02 01:51:00,65.5,42.4,29.50,SSE,150,0.0,0.0,43,0.00,,CLR,0.00,VWS V14.00,2013-07-02 08:51:00,
2013-07-02 01:56:00,65.5,42.4,29.50,SSE,150,0.0,0.0,43,0.00,,CLR,0.00,VWS V14.00,2013-07-02 08:56:00,
2013-07-02 02:01:00,65.3,42.8,29.50,North,8,0.0,0.0,44,0.00,,CLR,0.00,VWS V14.00,2013-07-02 09:01:00,
2013-07-02 02:07:00,65.3,42.8,29.50,North,8,0.0,0.0,44,0.00,,CLR,0.00,VWS V14.00,2013-07-02 09:07:00,
2013-07-02 02:12:00,65.1,42.7,29.50,North,8,0.0,0.0,44,0.00,,CLR,0.00,VWS V14.00,2013-07-02 09:12:00,
2013-07-02 02:18:00,64.9,42.5,29.53,North,8,0.0,0.0,44,0.00,,CLR,0.00,VWS V14.00,2013-07-02 09:18:00,
2013-07-02 02:24:00,64.8,42.4,29.53,North,8,0.0,0.0,44,0.00,,CLR,0.00,VWS V14.00,2013-07-02 09:24:00,
2013-07-02 02:29:00,64.8,42.4,29.50,North,8,0.0,0.0,44,0.00,,CLR,0.00,VWS V14.00,2013-07-02 09:29:00,
2013-07-02 02:35:00,64.6,42.2,29.50,North,8,0.0,0.0,44,0.00,,CLR,0.00,VWS V14.00,2013-07-02 09:35:00,
2013-07-02 02:40:00,64.2,42.5,29.50,North,8,0.0,0.0,45,0.00,,CLR,0.00,VWS V14.00,2013-07-02 09:40:00,
2013-07-02 02:45:00,63.9,42.1,29.53,North,8,0.0,0.0,45,0.00,,CLR,0.00,VWS V14.00,2013-07-02 09:45:00,
2013-07-02 02:51:00,63.5,41.8,29.53,North,8,0.0,0.0,45,0.00,,CLR,0.00,VWS V14.00,2013-07-02 09:51:00,
2013-07-02 02:56:00,63.3,42.2,29.53,North,8,0.0,0.0,46,0.00,,CLR,0.00,VWS V14.00,2013-07-02 09:56:00,
2013-07-02 03:02:00,63.1,42.6,29.50,North,8,0.0,0.0,47,0.00,,CLR,0.00,VWS V14.00,2013-07-02 10:02:00,
2013-07-02 03:07:00,63.0,42.4,29.50,North,8,0.0,0.0,47,0.00,,CLR,0.00,VWS V14.00,2013-07-02 10:07:00,
2013-07-02 03:13:00,62.8,42.8,29.50,North,8,0.0,0.0,48,0.00,,CLR,0.00,VWS V14.00,2013-07-02 10:13:00,
2013-07-02 03:19:00,62.8,42.8,29.50,North,8,0.0,0.0,48,0.00,,CLR,0.00,VWS V14.00,2013-07-02 10:19:00,
2013-07-02 03:24:00,62.6,43.2,29.50,North,8,0.0,0.0,49,0.00,,CLR,0.00,VWS V14.00,2013-07-02 10:24:00,
2013-07-02 03:30:00,62.6,43.2,29.50,North,8,0.0,0.0,49,0.00,,CLR,0.00,VWS V14.00,2013-07-02 10:30:00,
2013-07-02 03:35:00,62.4,43.5,29.50,North,8,0.0,0.0,50,0.00,,CLR,0.00,VWS V14.00,2013-07-02 10:35:00,
2013-07-02 03:41:00,62.4,43.5,29.50,North,8,0.0,0.0,50,0.00,,CLR,0.00,VWS V14.00,2013-07-02 10:41:00,
2013-07-02 03:46:00,62.4,43.5,29.50,ENE,69,0.0,0.0,50,0.00,,CLR,0.00,VWS V14.00,2013-07-02 10:46:00,
2013-07-02 03:52:00,62.6,43.2,29.50,ENE,69,0.0,0.0,49,0.00,,CLR,0.00,VWS V14.00,2013-07-02 10:52:00,
2013-07-02 03:58:00,62.6,43.2,29.50,ESE,122,0.0,0.0,49,0.00,,CLR,0.00,VWS V14.00,2013-07-02 10:58:00,
2013-07-02 04:03:00,62.6,43.2,29.50,ESE,122,0.0,0.0,49,0.00,,CLR,0.00,VWS V14.00,2013-07-02 11:03:00,
2013-07-02 04:08:00,62.6,43.2,29.50,ESE,122,0.0,0.0,49,0.00,,CLR,0.00,VWS V14.00,2013-07-02 11:08:00,
2013-07-02 04:13:00,62.4,43.0,29.50,ESE,122,0.0,0.0,49,0.00,,CLR,0.00,VWS V14.00,2013-07-02 11:13:00,
2013-07-02 04:19:00,62.2,42.9,29.50,ESE,122,0.0,0.0,49,0.00,,CLR,0.00,VWS V14.00,2013-07-02 11:19:00,
2013-07-02 04:24:00,62.1,42.7,29.50,ESE,122,0.0,0.0,49,0.00,,CLR,0.00,VWS V14.00,2013-07-02 11:24:00,
2013-07-02 04:30:00,61.9,42.5,29.50,ESE,122,0.0,0.0,49,0.00,,CLR,0.00,VWS V14.00,2013-07-02 11:30:00,
2013-07-02 04:35:00,61.7,42.4,29.50,ESE,122,0.0,0.0,49,0.00,,CLR,0.00,VWS V14.00,2013-07-02 11:35:00,
2013-07-02 04:41:00,61.5,42.2,29.50,ESE,122,0.0,0.0,49,0.00,,CLR,0.00,VWS V14.00,2013-07-02 11:41:00,
2013-07-02 04:46:00,61.3,42.0,29.50,ESE,122,0.0,0.0,49,0.00,,CLR,0.00,VWS V14.00,2013-07-02 11:46:00,
2013-07-02 04:52:00,61.2,42.4,29.50,ESE,122,0.0,0.0,50,0.00,,CLR,0.00,VWS V14.00,2013-07-02 11:52:00,
2013-07-02 04:57:00,61.0,42.2,29.50,ESE,122,0.0,0.0,50,0.00,,CLR,0.00,VWS V14.00,2013-07-02 11:57:00,
2013-07-02 05:02:00,61.0,42.2,29.50,ESE,122,0.0,0.0,50,0.00,,CLR,0.00,VWS V14.00,2013-07-02 12:02:00,
2013-07-02 05:07:00,60.8,42.1,29.50,ESE,122,0.0,0.0,50,0.00,,CLR,0.00,VWS V14.00,2013-07-02 12:07:00,
2013-07-02 05:13:00,60.8,42.6,29.50,ESE,122,0.0,0.0,51,0.00,,CLR,0.00,VWS V14.00,2013-07-02 12:13:00,
2013-07-02 05:18:00,60.8,42.6,29.50,SSE,153,2.2,2.7,51,0.00,,CLR,0.00,VWS V14.00,2013-07-02 12:18:00,
2013-07-02 05:23:00,60.8,43.1,29.50,SE,144,0.0,0.0,52,0.00,,CLR,0.00,VWS V14.00,2013-07-02 12:23:00,
2013-07-02 05:29:00,61.0,43.2,29.50,SE,139,0.0,0.0,52,0.00,,CLR,0.00,VWS V14.00,2013-07-02 12:29:00,
2013-07-02 05:34:00,61.0,43.2,29.50,SE,139,0.0,0.0,52,0.00,,CLR,0.00,VWS V14.00,2013-07-02 12:34:00,
2013-07-02 05:40:00,61.0,43.2,29.50,SE,139,0.0,0.0,52,0.00,,CLR,0.00,VWS V14.00,2013-07-02 12:40:00,
2013-07-02 05:45:00,61.0,43.2,29.50,SE,139,0.0,0.0,52,0.00,,CLR,0.00,VWS V14.00,2013-07-02 12:45:00,
2013-07-02 05:50:00,61.0,43.2,29.50,SE,139,0.0,0.0,52,0.00,,CLR,0.00,VWS V14.00,2013-07-02 12:50:00,
2013-07-02 05:55:00,61.0,43.2,29.50,SE,139,0.0,0.0,52,0.00,,CLR,0.00,VWS V14.00,2013-07-02 12:55:00,
2013-07-02 06:01:00,61.0,43.2,29.50,SSW,198,0.0,0.0,52,0.00,,CLR,0.00,VWS V14.00,2013-07-02 13:01:00,
2013-07-02 06:06:00,61.0,43.2,29.50,SSW,196,0.0,0.0,52,0.00,,CLR,0.00,VWS V14.00,2013-07-02 13:06:00,
2013-07-02 06:11:00,61.2,43.9,29.50,SSW,196,0.0,0.0,53,0.00,,CLR,0.00,VWS V14.00,2013-07-02 13:11:00,
2013-07-02 06:16:00,61.2,43.9,29.50,South,191,0.0,0.0,53,0.00,,CLR,0.00,VWS V14.00,2013-07-02 13:16:00,
2013-07-02 06:21:00,61.3,44.1,29.50,SE,137,0.0,0.0,53,0.00,,CLR,0.00,VWS V14.00,2013-07-02 13:21:00,
2013-07-02 06:26:00,61.3,44.1,29.50,SE,137,0.0,0.0,53,0.00,,CLR,0.00,VWS V14.00,2013-07-02 13:26:00,
2013-07-02 06:32:00,61.5,44.2,29.50,SSE,150,0.0,0.0,53,0.00,,CLR,0.00,VWS V14.00,2013-07-02 13:32:00,
2013-07-02 06:37:00,61.5,44.2,29.50,SSE,150,0.0,0.0,53,0.00,,CLR,0.00,VWS V14.00,2013-07-02 13:37:00,
2013-07-02 06:43:00,61.5,44.7,29.50,SSE,150,0.0,0.0,54,0.00,,CLR,0.00,VWS V14.00,2013-07-02 13:43:00,
2013-07-02 06:48:00,61.7,44.9,29.50,SSE,150,0.0,0.0,54,0.00,,CLR,0.00,VWS V14.00,2013-07-02 13:48:00,
2013-07-02 06:54:00,61.7,44.9,29.50,SSE,150,0.0,0.0,54,0.00,,CLR,0.00,VWS V14.00,2013-07-02 13:54:00,
2013-07-02 06:59:00,61.9,45.1,29.50,SSE,150,0.0,0.0,54,0.00,,CLR,0.00,VWS V14.00,2013-07-02 13:59:00,
2013-07-02 07:04:00,61.9,45.1,29.50,SSE,150,0.0,0.0,54,0.00,,,0.00,VWS V14.00,2013-07-02 14:04:00,
2013-07-02 07:10:00,61.9,45.1,29.50,SE,139,0.0,0.0,54,0.00,,,0.00,VWS V14.00,2013-07-02 14:10:00,
2013-07-02 07:15:00,62.1,44.8,29.53,SE,139,0.0,0.0,53,0.00,,,0.00,VWS V14.00,2013-07-02 14:15:00,
2013-07-02 07:21:00,62.1,44.8,29.53,NNE,26,0.0,0.0,53,0.00,,,0.00,VWS V14.00,2013-07-02 14:21:00,
2013-07-02 07:26:00,62.2,44.9,29.53,NNE,26,0.0,0.0,53,0.00,,,0.00,VWS V14.00,2013-07-02 14:26:00,
2013-07-02 07:32:00,62.4,45.1,29.53,NNE,26,0.0,0.0,53,0.00,,,0.00,VWS V14.00,2013-07-02 14:32:00,
2013-07-02 07:37:00,62.6,44.8,29.53,NNE,26,0.0,0.0,52,0.00,,,0.00,VWS V14.00,2013-07-02 14:37:00,
2013-07-02 07:42:00,62.8,44.9,29.53,NNE,26,0.0,0.0,52,0.00,,,0.00,VWS V14.00,2013-07-02 14:42:00,
2013-07-02 07:47:00,63.1,45.2,29.53,South,176,0.0,0.0,52,0.00,,,0.00,VWS V14.00,2013-07-02 14:47:00,
2013-07-02 07:53:00,63.3,44.9,29.53,South,187,0.0,0.0,51,0.00,,,0.00,VWS V14.00,2013-07-02 14:53:00,
2013-07-02 07:58:00,63.5,45.1,29.53,South,187,0.0,0.0,51,0.00,,,0.00,VWS V14.00,2013-07-02 14:58:00,
2013-07-02 08:04:00,63.9,44.9,29.53,South,187,0.0,0.0,50,0.00,,FEW015,0.00,VWS V14.00,2013-07-02 15:04:00,
2013-07-02 08:10:00,64.0,45.0,29.53,South,187,0.0,0.0,50,0.00,,FEW015,0.00,VWS V14.00,2013-07-02 15:10:00,
2013-07-02 08:15:00,64.2,44.7,29.53,SSW,205,0.0,2.7,49,0.00,,FEW015,0.00,VWS V14.00,2013-07-02 15:15:00,
2013-07-02 08:20:00,64.2,44.7,29.53,SSE,155,2.7,2.7,49,0.00,,FEW015,0.00,VWS V14.00,2013-07-02 15:20:00,
2013-07-02 08:25:00,64.2,44.1,29.53,SE,142,0.0,0.0,48,0.00,,FEW015,0.00,VWS V14.00,2013-07-02 15:25:00,
2013-07-02 08:31:00,64.2,43.6,29.53,SE,142,0.0,0.0,47,0.00,,FEW015,0.00,VWS V14.00,2013-07-02 15:31:00,
2013-07-02 08:36:00,64.4,43.8,29.53,SSE,154,0.0,3.1,47,0.00,,FEW015,0.00,VWS V14.00,2013-07-02 15:36:00,
2013-07-02 08:42:00,64.4,43.2,29.53,SSW,194,0.0,0.0,46,0.00,,FEW015,0.00,VWS V14.00,2013-07-02 15:42:00,
2013-07-02 08:47:00,64.8,43.5,29.53,SSE,154,0.0,0.0,46,0.00,,FEW015,0.00,VWS V14.00,2013-07-02 15:47:00,
2013-07-02 08:53:00,64.9,43.7,29.53,SSW,198,0.0,0.0,46,0.00,,FEW015,0.00,VWS V14.00,2013-07-02 15:53:00,
2013-07-02 08:58:00,65.3,44.0,29.53,SSW,199,0.0,0.0,46,0.00,,FEW015,0.00,VWS V14.00,2013-07-02 15:58:00,
2013-07-02 09:04:00,65.5,43.6,29.53,SSW,198,0.0,0.0,45,0.00,,SCT015,0.00,VWS V14.00,2013-07-02 16:04:00,
2013-07-02 09:10:00,65.7,43.8,29.53,South,172,0.0,3.1,45,0.00,,SCT015,0.00,VWS V14.00,2013-07-02 16:10:00,
2013-07-02 09:15:00,65.8,43.3,29.53,South,190,0.0,0.0,44,0.00,,SCT015,0.00,VWS V14.00,2013-07-02 16:15:00,
2013-07-02 09:21:00,66.0,43.5,29.53,SW,229,2.2,3.6,44,0.00,,SCT015,0.00,VWS V14.00,2013-07-02 16:21:00,
2013-07-02 09:27:00,66.4,43.2,29.53,WSW,237,3.6,3.6,43,0.00,,SCT015,0.00,VWS V14.00,2013-07-02 16:27:00,
2013-07-02 09:32:00,66.7,43.5,29.53,WSW,241,0.0,0.0,43,0.00,,SCT015,0.00,VWS V14.00,2013-07-02 16:32:00,
2013-07-02 09:38:00,67.3,44.0,29.53,SE,139,0.0,3.1,43,0.00,,SCT015,0.00,VWS V14.00,2013-07-02 16:38:00,
2013-07-02 09:43:00,67.5,43.0,29.53,South,183,0.0,0.0,41,0.00,,SCT015,0.00,VWS V14.00,2013-07-02 16:43:00,
2013-07-02 09:49:00,67.6,42.5,29.53,SE,145,0.0,0.0,40,0.00,,SCT015,0.00,VWS V14.00,2013-07-02 16:49:00,
2013-07-02 09:55:00,67.8,42.6,29.53,West,272,0.0,2.7,40,0.00,,SCT015,0.00,VWS V14.00,2013-07-02 16:55:00,
2013-07-02 10:00:00,68.0,42.1,29.53,WNW,287,0.0,0.0,39,0.00,,SCT015,0.00,VWS V14.00,2013-07-02 17:00:00,
2013-07-02 10:06:00,68.4,41.8,29.53,South,175,0.0,0.0,38,0.00,,CLR,0.00,VWS V14.00,2013-07-02 17:06:00,
2013-07-02 10:11:00,68.5,42.0,29.53,SSE,155,0.0,2.2,38,0.00,,CLR,0.00,VWS V14.00,2013-07-02 17:11:00,
2013-07-02 10:17:00,68.9,41.6,29.53,South,169,3.6,3.6,37,0.00,,CLR,0.00,VWS V14.00,2013-07-02 17:17:00,
2013-07-02 10:22:00,69.3,41.9,29.53,South,171,0.0,0.0,37,0.00,,CLR,0.00,VWS V14.00,2013-07-02 17:22:00,
2013-07-02 10:28:00,69.8,41.7,29.53,SE,126,0.0,2.7,36,0.00,,CLR,0.00,VWS V14.00,2013-07-02 17:28:00,
2013-07-02 10:34:00,70.2,41.3,29.53,SE,130,2.7,2.7,35,0.00,,CLR,0.00,VWS V14.00,2013-07-02 17:34:00,
2013-07-02 10:39:00,70.3,41.4,29.53,South,176,0.0,2.7,35,0.00,,CLR,0.00,VWS V14.00,2013-07-02 17:39:00,
2013-07-02 10:45:00,70.7,41.7,29.53,SE,131,0.0,2.2,35,0.00,,CLR,0.00,VWS V14.00,2013-07-02 17:45:00,
2013-07-02 10:51:00,71.1,41.3,29.53,South,179,0.0,0.0,34,0.00,,CLR,0.00,VWS V14.00,2013-07-02 17:51:00,
2013-07-02 10:56:00,71.4,41.6,29.53,West,277,0.0,2.2,34,0.00,,CLR,0.00,VWS V14.00,2013-07-02 17:56:00,
2013-07-02 11:02:00,71.8,41.2,29.53,SSE,151,0.0,0.0,33,0.00,,CLR,0.00,VWS V14.00,2013-07-02 18:02:00,
2013-07-02 11:07:00,72.1,41.5,29.53,SSW,192,0.0,3.6,33,0.00,,CLR,0.00,VWS V14.00,2013-07-02 18:07:00,
2013-07-02 11:13:00,72.5,41.0,29.53,SSW,211,0.0,3.1,32,0.00,,CLR,0.00,VWS V14.00,2013-07-02 18:13:00,
2013-07-02 11:19:00,72.9,41.3,29.53,ESE,123,2.2,3.6,32,0.00,,CLR,0.00,VWS V14.00,2013-07-02 18:19:00,
2013-07-02 11:25:00,73.0,41.5,29.53,West,268,0.0,4.9,32,0.00,,CLR,0.00,VWS V14.00,2013-07-02 18:25:00,
2013-07-02 11:31:00,72.9,41.3,29.53,WSW,241,2.2,2.2,32,0.00,,CLR,0.00,VWS V14.00,2013-07-02 18:31:00,
2013-07-02 11:36:00,73.0,41.5,29.53,SSW,206,0.0,3.1,32,0.00,,CLR,0.00,VWS V14.00,2013-07-02 18:36:00,
2013-07-02 11:42:00,73.6,41.9,29.53,ESE,119,2.2,3.1,32,0.00,,CLR,0.00,VWS V14.00,2013-07-02 18:42:00,
2013-07-02 11:48:00,73.8,41.3,29.53,South,188,0.0,3.1,31,0.00,,CLR,0.00,VWS V14.00,2013-07-02 18:48:00,
2013-07-02 11:53:00,73.8,41.3,29.53,ESE,113,2.7,3.6,31,0.00,,CLR,0.00,VWS V14.00,2013-07-02 18:53:00,
2013-07-02 11:58:00,74.1,41.6,29.53,SW,214,2.7,4.0,31,0.00,,CLR,0.00,VWS V14.00,2013-07-02 18:58:00,
2013-07-02 12:03:00,74.1,41.6,29.53,SE,145,2.2,2.7,31,0.00,,,0.00,VWS V14.00,2013-07-02 19:03:00,
2013-07-02 12:09:00,74.3,41.7,29.53,SE,135,2.2,2.7,31,0.00,,,0.00,VWS V14.00,2013-07-02 19:09:00,
2013-07-02 12:14:00,74.5,41.9,29.53,NW,326,0.0,2.7,31,0.00,,,0.00,VWS V14.00,2013-07-02 19:14:00,
2013-07-02 12:20:00,75.0,42.4,29.53,SSE,159,0.0,3.6,31,0.00,,,0.00,VWS V14.00,2013-07-02 19:20:00,
2013-07-02 12:25:00,75.2,41.7,29.53,SE,143,2.2,3.6,30,0.00,,,0.00,VWS V14.00,2013-07-02 19:25:00,
2013-07-02 12:31:00,75.0,40.6,29.53,SSW,196,4.0,5.8,29,0.00,,,0.00,VWS V14.00,2013-07-02 19:31:00,
2013-07-02 12:36:00,74.8,41.4,29.53,SSE,152,2.7,2.7,30,0.00,,,0.00,VWS V14.00,2013-07-02 19:36:00,
2013-07-02 12:42:00,74.8,41.4,29.53,SSW,205,3.1,4.0,30,0.00,,,0.00,VWS V14.00,2013-07-02 19:42:00,
2013-07-02 12:48:00,74.8,41.4,29.53,SSE,165,2.7,3.1,30,0.00,,,0.00,VWS V14.00,2013-07-02 19:48:00,
2013-07-02 12:53:00,75.2,41.7,29.53,SW,234,0.0,3.1,30,0.00,,,0.00,VWS V14.00,2013-07-02 19:53:00,
2013-07-02 12:59:00,75.7,41.3,29.53,SSE,158,2.2,2.2,29,0.00,,,0.00,VWS V14.00,2013-07-02 19:59:00,
2013-07-02 13:05:00,75.7,39.4,29.53,South,177,0.0,5.8,27,0.00,,CLR,0.00,VWS V14.00,2013-07-02 20:05:00,
2013-07-02 13:10:00,75.9,39.6,29.53,SE,146,2.7,2.7,27,0.00,,CLR,0.00,VWS V14.00,2013-07-02 20:10:00,
2013-07-02 13:16:00,76.3,39.9,29.53,SE,138,2.7,2.7,27,0.00,,CLR,0.00,VWS V14.00,2013-07-02 20:16:00,
2013-07-02 13:21:00,76.6,40.2,29.53,South,179,2.2,3.6,27,0.00,,CLR,0.00,VWS V14.00,2013-07-02 20:21:00,
2013-07-02 13:26:00,76.6,39.2,29.53,South,183,0.0,2.7,26,0.00,,CLR,0.00,VWS V14.00,2013-07-02 20:26:00,
2013-07-02 13:31:00,76.8,40.3,29.53,South,186,3.1,3.1,27,0.00,,CLR,0.00,VWS V14.00,2013-07-02 20:31:00,
2013-07-02 13:37:00,77.2,40.7,29.53,South,184,0.0,0.0,27,0.00,,CLR,0.00,VWS V14.00,2013-07-02 20:37:00,
2013-07-02 13:42:00,77.7,40.1,29.53,West,277,0.0,2.2,26,0.00,,CLR,0.00,VWS V14.00,2013-07-02 20:42:00,
2013-07-02 13:48:00,77.9,38.2,29.53,South,178,2.7,4.5,24,0.00,,CLR,0.00,VWS V14.00,2013-07-02 20:48:00,
2013-07-02 13:54:00,77.5,36.8,29.53,SW,227,2.7,2.7,23,0.00,,CLR,0.00,VWS V14.00,2013-07-02 20:54:00,
2013-07-02 13:59:00,77.7,38.1,29.53,SSE,160,0.0,0.0,24,0.00,,CLR,0.00,VWS V14.00,2013-07-02 20:59:00,
2013-07-02 14:04:00,78.1,38.4,29.53,South,171,0.0,4.9,24,0.00,,,0.00,VWS V14.00,2013-07-02 21:04:00,
2013-07-02 14:09:00,78.1,37.3,29.53,WSW,238,4.0,5.8,23,0.00,,,0.00,VWS V14.00,2013-07-02 21:09:00,
2013-07-02 14:15:00,78.1,37.3,29.53,ENE,64,0.0,0.0,23,0.00,,,0.00,VWS V14.00,2013-07-02 21:15:00,
2013-07-02 14:20:00,78.3,37.5,29.53,SSW,196,3.6,6.3,23,0.00,,,0.00,VWS V14.00,2013-07-02 21:20:00,
2013-07-02 14:25:00,77.9,38.2,29.53,SSW,194,3.1,3.1,24,0.00,,,0.00,VWS V14.00,2013-07-02 21:25:00,
2013-07-02 14:30:00,77.9,38.2,29.53,SSE,150,0.0,4.0,24,0.00,,,0.00,VWS V14.00,2013-07-02 21:30:00,
2013-07-02 14:35:00,78.1,38.4,29.53,SSW,197,2.2,2.7,24,0.00,,,0.00,VWS V14.00,2013-07-02 21:35:00,
2013-07-02 14:41:00,78.8,39.0,29.53,SW,236,4.9,4.9,24,0.00,,,0.00,VWS V14.00,2013-07-02 21:41:00,
2013-07-02 14:46:00,78.8,37.9,29.56,SE,135,2.7,3.1,23,0.00,,,0.00,VWS V14.00,2013-07-02 21:46:00,
2013-07-02 14:51:00,79.0,36.9,29.56,SSW,200,4.0,4.0,22,0.00,,,0.00,VWS V14.00,2013-07-02 21:51:00,
2013-07-02 14:57:00,79.2,37.1,29.56,SSW,193,2.2,3.6,22,0.00,,,0.00,VWS V14.00,2013-07-02 21:57:00,
2013-07-02 15:02:00,79.3,36.0,29.53,SSW,206,4.9,4.9,21,0.00,,CLR,0.00,VWS V14.00,2013-07-02 22:02:00,
2013-07-02 15:08:00,79.2,34.7,29.53,SSW,197,2.2,4.9,20,0.00,,CLR,0.00,VWS V14.00,2013-07-02 22:08:00,
2013-07-02 15:13:00,79.2,34.7,29.53,South,187,0.0,2.7,20,0.00,,CLR,0.00,VWS V14.00,2013-07-02 22:13:00,
2013-07-02 15:18:00,79.3,34.8,29.53,South,173,0.0,2.2,20,0.00,,CLR,0.00,VWS V14.00,2013-07-02 22:18:00,
2013-07-02 15:23:00,79.5,35.0,29.53,SW,214,4.9,8.3,20,0.00,,CLR,0.00,VWS V14.00,2013-07-02 22:23:00,
2013-07-02 15:29:00,79.3,30.8,29.53,SW,216,0.0,8.3,17,0.00,,CLR,0.00,VWS V14.00,2013-07-02 22:29:00,
2013-07-02 15:34:00,79.5,30.9,29.53,ESE,122,0.0,0.0,17,0.00,,CLR,0.00,VWS V14.00,2013-07-02 22:34:00,
2013-07-02 15:39:00,79.5,30.9,29.53,ESE,122,2.7,4.9,17,0.00,,CLR,0.00,VWS V14.00,2013-07-02 22:39:00,
2013-07-02 15:44:00,79.5,30.9,29.53,South,174,2.2,5.4,17,0.00,,CLR,0.00,VWS V14.00,2013-07-02 22:44:00,
2013-07-02 15:50:00,79.3,30.8,29.53,West,260,2.2,3.1,17,0.00,,CLR,0.00,VWS V14.00,2013-07-02 22:50:00,
2013-07-02 15:55:00,79.5,35.0,29.53,SW,215,0.0,2.2,20,0.00,,CLR,0.00,VWS V14.00,2013-07-02 22:55:00,
2013-07-02 16:01:00,79.9,31.2,29.53,SSW,211,0.0,5.8,17,0.00,,CLR,0.00,VWS V14.00,2013-07-02 23:01:00,
2013-07-02 16:07:00,79.9,31.2,29.53,SSW,199,0.0,4.0,17,0.00,,CLR,0.00,VWS V14.00,2013-07-02 23:07:00,
2013-07-02 16:12:00,79.7,31.1,29.53,SSW,205,2.2,3.1,17,0.00,,CLR,0.00,VWS V14.00,2013-07-02 23:12:00,
2013-07-02 16:17:00,79.5,30.9,29.53,SW,226,0.0,4.0,17,0.00,,CLR,0.00,VWS V14.00,2013-07-02 23:17:00,
2013-07-02 16:22:00,79.7,31.1,29.53,WSW,249,0.0,3.6,17,0.00,,CLR,0.00,VWS V14.00,2013-07-02 23:22:00,
2013-07-02 16:28:00,79.9,31.2,29.53,SE,143,3.6,4.9,17,0.00,,CLR,0.00,VWS V14.00,2013-07-02 23:28:00,
2013-07-02 16:31:00,79.7,31.1,29.53,SE,129,0.0,2.7,17,0.00,,CLR,0.00,VWS V14.00,2013-07-02 23:31:00,
2013-07-02 16:36:00,79.7,31.1,29.53,SSE,159,3.1,6.3,17,0.00,,CLR,0.00,VWS V14.00,2013-07-02 23:36:00,
2013-07-02 16:41:00,79.7,35.1,29.53,SSE,157,0.0,0.0,20,0.00,,CLR,0.00,VWS V14.00,2013-07-02 23:41:00,
2013-07-02 16:47:00,79.9,35.3,29.53,SSW,196,0.0,3.6,20,0.00,,CLR,0.00,VWS V14.00,2013-07-02 23:47:00,
2013-07-02 16:53:00,79.9,35.3,29.53,SSW,196,0.0,3.6,20,0.00,,CLR,0.00,VWS V14.00,2013-07-02 23:53:00,
2013-07-02 16:58:00,80.1,35.4,29.53,South,180,0.0,0.0,20,0.00,,CLR,0.00,VWS V14.00,2013-07-02 23:58:00,
2013-07-02 17:02:00,80.1,35.4,29.53,SSW,192,3.6,3.6,20,0.00,,CLR,0.00,VWS V14.00,2013-07-03 00:02:00,
2013-07-02 17:07:00,80.1,35.4,29.53,SSE,164,0.0,5.8,20,0.00,,CLR,0.00,VWS V14.00,2013-07-03 00:07:00,
2013-07-02 17:12:00,80.2,35.6,29.53,SSW,203,2.7,2.7,20,0.00,,CLR,0.00,VWS V14.00,2013-07-03 00:12:00,
2013-07-02 17:18:00,80.1,35.4,29.53,SSW,198,4.0,4.0,20,0.00,,CLR,0.00,VWS V14.00,2013-07-03 00:18:00,
2013-07-02 17:24:00,80.2,35.6,29.53,NE,55,0.0,4.0,20,0.00,,CLR,0.00,VWS V14.00,2013-07-03 00:24:00,
2013-07-02 17:29:00,80.2,35.6,29.53,NW,315,5.4,5.4,20,0.00,,CLR,0.00,VWS V14.00,2013-07-03 00:29:00,
2013-07-02 17:35:00,80.1,35.4,29.53,SSE,155,3.1,3.1,20,0.00,,CLR,0.00,VWS V14.00,2013-07-03 00:35:00,
2013-07-02 17:40:00,80.2,35.6,29.53,SE,144,2.7,3.6,20,0.00,,CLR,0.00,VWS V14.00,2013-07-03 00:40:00,
2013-07-02 17:46:00,80.6,34.6,29.53,SSW,197,2.7,3.1,19,0.00,,CLR,0.00,VWS V14.00,2013-07-03 00:46:00,
2013-07-02 17:52:00,80.4,31.7,29.53,South,189,0.0,0.0,17,0.00,,CLR,0.00,VWS V14.00,2013-07-03 00:52:00,
2013-07-02 17:57:00,80.2,31.5,29.53,South,169,2.2,2.2,17,0.00,,CLR,0.00,VWS V14.00,2013-07-03 00:57:00,
2013-07-02 18:03:00,80.1,31.4,29.53,SSW,209,5.4,5.4,17,0.00,,CLR,0.00,VWS V14.00,2013-07-03 01:03:00,
2013-07-02 18:05:00,80.1,31.4,29.53,South,170,2.7,4.0,17,0.00,,CLR,0.00,VWS V14.00,2013-07-03 01:05:00,
2013-07-02 18:06:00,80.1,31.4,29.53,South,173,0.0,3.1,17,0.00,,CLR,0.00,VWS V14.00,2013-07-03 01:06:00,
2013-07-02 18:10:00,79.9,31.2,29.53,South,178,0.0,0.0,17,0.00,,CLR,0.00,VWS V14.00,2013-07-03 01:10:00,
2013-07-02 18:15:00,80.1,31.4,29.53,ENE,63,2.2,2.7,17,0.00,,CLR,0.00,VWS V14.00,2013-07-03 01:15:00,
2013-07-02 18:21:00,80.1,31.4,29.53,SSE,162,0.0,2.7,17,0.00,,CLR,0.00,VWS V14.00,2013-07-03 01:21:00,
2013-07-02 18:27:00,79.7,35.1,29.53,South,189,0.0,0.0,20,0.00,,CLR,0.00,VWS V14.00,2013-07-03 01:27:00,
2013-07-02 18:28:00,79.7,35.1,29.50,South,189,0.0,0.0,20,0.00,,CLR,0.00,VWS V14.00,2013-07-03 01:28:00,
2013-07-02 18:34:00,79.5,35.0,29.50,South,183,0.0,0.0,20,0.00,,CLR,0.00,VWS V14.00,2013-07-03 01:34:00,
2013-07-02 18:39:00,79.2,30.6,29.50,SSE,159,0.0,2.7,17,0.00,,CLR,0.00,VWS V14.00,2013-07-03 01:39:00,
2013-07-02 18:44:00,79.0,34.5,29.50,South,183,0.0,5.8,20,0.00,,CLR,0.00,VWS V14.00,2013-07-03 01:44:00,
2013-07-02 18:49:00,79.3,34.8,29.50,SSW,209,0.0,0.0,20,0.00,,CLR,0.00,VWS V14.00,2013-07-03 01:49:00,
2013-07-02 18:50:00,79.5,35.0,29.50,SSW,209,0.0,0.0,20,0.00,,CLR,0.00,VWS V14.00,2013-07-03 01:50:00,
2013-07-02 18:51:00,79.5,35.0,29.50,SSW,209,0.0,0.0,20,0.00,,CLR,0.00,VWS V14.00,2013-07-03 01:51:00,
2013-07-02 18:56:00,80.1,35.4,29.50,WSW,253,2.2,2.2,20,0.00,,CLR,0.00,VWS V14.00,2013-07-03 01:56:00,
2013-07-02 19:01:00,80.6,31.8,29.50,West,275,0.0,0.0,17,0.00,,CLR,0.00,VWS V14.00,2013-07-03 02:01:00,
2013-07-02 19:07:00,80.4,31.7,29.50,South,176,0.0,2.7,17,0.00,,CLR,0.00,VWS V14.00,2013-07-03 02:07:00,
2013-07-02 19:13:00,79.3,30.8,29.50,South,183,0.0,0.0,17,0.00,,CLR,0.00,VWS V14.00,2013-07-03 02:13:00,
2013-07-02 19:18:00,78.4,31.5,29.50,West,281,0.0,0.0,18,0.00,,CLR,0.00,VWS V14.00,2013-07-03 02:18:00,
2013-07-02 19:24:00,77.5,30.7,29.50,West,280,0.0,0.0,18,0.00,,CLR,0.00,VWS V14.00,2013-07-03 02:24:00,
2013-07-02 19:29:00,76.6,30.0,29.50,NW,324,0.0,0.0,18,0.00,,CLR,0.00,VWS V14.00,2013-07-03 02:29:00,
2013-07-02 19:33:00,76.1,29.6,29.50,SSE,154,0.0,3.1,18,0.00,,CLR,0.00,VWS V14.00,2013-07-03 02:33:00,
2013-07-02 19:38:00,75.6,29.1,29.50,NW,304,3.6,3.6,18,0.00,,CLR,0.00,VWS V14.00,2013-07-03 02:38:00,
2013-07-02 19:44:00,75.2,28.8,29.50,NW,317,4.0,4.0,18,0.00,,CLR,0.00,VWS V14.00,2013-07-03 02:44:00,
2013-07-02 19:48:00,75.0,28.7,29.50,West,276,4.0,4.0,18,0.00,,CLR,0.00,VWS V14.00,2013-07-03 02:48:00,
2013-07-02 19:53:00,74.8,28.5,29.50,WNW,300,3.6,4.0,18,0.00,,CLR,0.00,VWS V14.00,2013-07-03 02:53:00,
2013-07-02 19:58:00,74.7,28.4,29.50,WNW,288,2.7,3.6,18,0.00,,CLR,0.00,VWS V14.00,2013-07-03 02:58:00,
2013-07-02 20:03:00,74.5,28.2,29.50,WNW,290,2.2,2.7,18,0.00,,CLR,0.00,VWS V14.00,2013-07-03 03:03:00,
2013-07-02 20:08:00,74.3,28.1,29.50,NW,318,0.0,0.0,18,0.00,,CLR,0.00,VWS V14.00,2013-07-03 03:08:00,
2013-07-02 20:13:00,74.1,27.9,29.50,WNW,299,0.0,3.6,18,0.00,,CLR,0.00,VWS V14.00,2013-07-03 03:13:00,
2013-07-02 20:19:00,73.9,27.8,29.50,WNW,292,0.0,3.1,18,0.00,,CLR,0.00,VWS V14.00,2013-07-03 03:19:00,
2013-07-02 20:20:00,73.8,27.6,29.50,WNW,292,0.0,0.0,18,0.00,,CLR,0.00,VWS V14.00,2013-07-03 03:20:00,
2013-07-02 20:26:00,73.4,31.1,29.50,WNW,286,0.0,2.7,21,0.00,,CLR,0.00,VWS V14.00,2013-07-03 03:26:00,
2013-07-02 20:31:00,72.9,30.7,29.50,NW,314,0.0,0.0,21,0.00,,CLR,0.00,VWS V14.00,2013-07-03 03:31:00,
2013-07-02 20:35:00,72.3,30.2,29.50,WNW,286,0.0,0.0,21,0.00,,CLR,0.00,VWS V14.00,2013-07-03 03:35:00,
2013-07-02 20:41:00,71.8,29.8,29.50,West,260,2.2,4.0,21,0.00,,CLR,0.00,VWS V14.00,2013-07-03 03:41:00,
2013-07-02 20:48:00,71.8,29.8,29.50,West,274,2.7,4.0,21,0.00,,CLR,0.00,VWS V14.00,2013-07-03 03:48:00,
2013-07-02 20:52:00,71.6,29.6,29.50,WNW,292,3.1,3.6,21,0.00,,CLR,0.00,VWS V14.00,2013-07-03 03:52:00,
2013-07-02 20:58:00,71.2,30.5,29.50,WNW,296,2.2,4.0,22,0.00,,CLR,0.00,VWS V14.00,2013-07-03 03:58:00,
2013-07-02 21:01:00,71.1,30.3,29.50,WNW,286,2.2,3.1,22,0.00,,CLR,0.00,VWS V14.00,2013-07-03 04:01:00,
2013-07-02 21:03:00,71.1,30.3,29.50,West,277,2.7,2.7,22,0.00,,CLR,0.00,VWS V14.00,2013-07-03 04:03:00,
2013-07-02 21:04:00,70.9,30.2,29.50,WNW,293,2.2,2.7,22,0.00,,CLR,0.00,VWS V14.00,2013-07-03 04:04:00,
2013-07-02 21:05:00,70.9,30.2,29.50,WNW,293,0.0,2.7,22,0.00,,CLR,0.00,VWS V14.00,2013-07-03 04:05:00,
2013-07-02 21:06:00,70.9,30.2,29.50,WNW,292,0.0,3.6,22,0.00,,CLR,0.00,VWS V14.00,2013-07-03 04:06:00,
2013-07-02 21:11:00,70.5,29.9,29.50,WNW,288,2.2,3.1,22,0.00,,CLR,0.00,VWS V14.00,2013-07-03 04:11:00,
2013-07-02 21:12:00,70.5,29.9,29.50,NNW,334,0.0,2.2,22,0.00,,CLR,0.00,VWS V14.00,2013-07-03 04:12:00,
2013-07-02 21:17:00,70.2,29.6,29.50,WNW,295,0.0,0.0,22,0.00,,CLR,0.00,VWS V14.00,2013-07-03 04:17:00,
2013-07-02 21:23:00,69.6,29.1,29.50,WNW,286,0.0,0.0,22,0.00,,CLR,0.00,VWS V14.00,2013-07-03 04:23:00,
2013-07-02 21:28:00,69.3,28.8,29.50,WNW,286,0.0,0.0,22,0.00,,CLR,0.00,VWS V14.00,2013-07-03 04:28:00,
2013-07-02 21:34:00,68.5,29.3,29.50,WNW,286,0.0,0.0,23,0.00,,CLR,0.00,VWS V14.00,2013-07-03 04:34:00,
2013-07-02 21:36:00,68.2,29.0,29.50,WNW,286,0.0,0.0,23,0.00,,CLR,0.00,VWS V14.00,2013-07-03 04:36:00,
2013-07-02 21:37:00,68.2,29.0,29.50,WNW,286,0.0,0.0,23,0.00,,CLR,0.00,VWS V14.00,2013-07-03 04:37:00,
2013-07-02 21:42:00,67.5,29.4,29.50,WNW,286,0.0,0.0,24,0.00,,CLR,0.00,VWS V14.00,2013-07-03 04:42:00,
2013-07-02 21:47:00,66.9,29.0,29.50,WNW,287,0.0,0.0,24,0.00,,CLR,0.00,VWS V14.00,2013-07-03 04:47:00,
2013-07-02 21:48:00,66.9,29.0,29.50,WNW,286,0.0,0.0,24,0.00,,CLR,0.00,VWS V14.00,2013-07-03 04:48:00,
2013-07-02 21:51:00,66.6,28.7,29.50,WNW,286,0.0,0.0,24,0.00,,CLR,0.00,VWS V14.00,2013-07-03 04:51:00,
2013-07-02 21:56:00,66.0,29.2,29.50,WNW,287,0.0,0.0,25,0.00,,CLR,0.00,VWS V14.00,2013-07-03 04:56:00,
2013-07-02 22:00:00,65.8,30.0,29.50,WNW,296,0.0,0.0,26,0.00,,CLR,0.00,VWS V14.00,2013-07-03 05:00:00,
2013-07-02 22:05:00,65.5,29.7,29.50,WNW,297,0.0,0.0,26,0.00,,CLR,0.00,VWS V14.00,2013-07-03 05:05:00,
2013-07-02 22:11:00,65.1,30.3,29.50,WNW,296,0.0,0.0,27,0.00,,CLR,0.00,VWS V14.00,2013-07-03 05:11:00,
2013-07-02 22:16:00,64.8,30.0,29.50,WNW,296,0.0,0.0,27,0.00,,CLR,0.00,VWS V14.00,2013-07-03 05:16:00,
2013-07-02 22:17:00,64.8,30.0,29.50,WNW,296,0.0,0.0,27,0.00,,CLR,0.00,VWS V14.00,2013-07-03 05:17:00,
2013-07-02 22:19:00,64.8,30.0,29.50,WNW,297,0.0,0.0,27,0.00,,CLR,0.00,VWS V14.00,2013-07-03 05:19:00,
2013-07-02 22:25:00,64.6,30.8,29.50,NW,311,0.0,2.2,28,0.00,,CLR,0.00,VWS V14.00,2013-07-03 05:25:00,
2013-07-02 22:30:00,64.4,30.6,29.50,NW,326,0.0,2.7,28,0.00,,CLR,0.00,VWS V14.00,2013-07-03 05:30:00,
2013-07-02 22:36:00,64.8,31.8,29.50,NNW,333,2.7,3.1,29,0.00,,CLR,0.00,VWS V14.00,2013-07-03 05:36:00,
2013-07-02 22:42:00,65.1,32.1,29.50,WNW,287,0.0,0.0,29,0.00,,CLR,0.00,VWS V14.00,2013-07-03 05:42:00,
2013-07-02 22:48:00,65.8,31.9,29.50,NW,304,0.0,2.2,28,0.00,,CLR,0.00,VWS V14.00,2013-07-03 05:48:00,
2013-07-02 22:54:00,66.4,31.4,29.50,WNW,283,3.6,3.6,27,0.00,,CLR,0.00,VWS V14.00,2013-07-03 05:54:00,
2013-07-02 22:56:00,66.4,30.5,29.50,NW,308,3.1,3.6,26,0.00,,CLR,0.00,VWS V14.00,2013-07-03 05:56:00,
2013-07-02 23:01:00,66.9,31.0,29.50,NW,317,3.1,6.3,26,0.00,,CLR,0.00,VWS V14.00,2013-07-03 06:01:00,
2013-07-02 23:04:00,67.3,30.3,29.50,SSW,207,2.7,4.0,25,0.00,,CLR,0.00,VWS V14.00,2013-07-03 06:04:00,
2013-07-02 23:06:00,67.5,30.4,29.50,WNW,294,5.8,5.8,25,0.00,,CLR,0.00,VWS V14.00,2013-07-03 06:06:00,
2013-07-02 23:11:00,67.8,29.7,29.50,NNW,327,3.1,5.4,24,0.00,,CLR,0.00,VWS V14.00,2013-07-03 06:11:00,
2013-07-02 23:16:00,68.0,29.9,29.50,NW,314,2.7,3.1,24,0.00,,CLR,0.00,VWS V14.00,2013-07-03 06:16:00,
2013-07-02 23:17:00,68.0,29.9,29.50,WNW,298,4.9,4.9,24,0.00,,CLR,0.00,VWS V14.00,2013-07-03 06:17:00,
2013-07-02 23:20:00,68.0,29.9,29.50,West,270,3.1,3.6,24,0.00,,CLR,0.00,VWS V14.00,2013-07-03 06:20:00,
2013-07-02 23:25:00,67.8,29.7,29.50,WNW,287,0.0,2.2,24,0.00,,CLR,0.00,VWS V14.00,2013-07-03 06:25:00,
2013-07-02 23:28:00,67.6,29.6,29.50,WNW,293,2.2,2.7,24,0.00,,CLR,0.00,VWS V14.00,2013-07-03 06:28:00,
2013-07-02 23:33:00,67.1,29.1,29.50,WNW,284,0.0,0.0,24,0.00,,CLR,0.00,VWS V14.00,2013-07-03 06:33:00,
2013-07-02 23:34:00,66.9,30.0,29.50,NNW,329,0.0,0.0,25,0.00,,CLR,0.00,VWS V14.00,2013-07-03 06:34:00,
2013-07-02 23:41:00,66.4,29.5,29.50,WNW,294,2.7,2.7,25,0.00,,CLR,0.00,VWS V14.00,2013-07-03 06:41:00,
2013-07-02 23:47:00,66.0,29.2,29.50,West,272,2.7,3.1,25,0.00,,CLR,0.00,VWS V14.00,2013-07-03 06:47:00,
2013-07-02 23:52:00,66.0,29.2,29.50,West,280,0.0,0.0,25,0.00,,CLR,0.00,VWS V14.00,2013-07-03 06:52:00,
2013-07-02 23:56:00,65.8,29.1,29.50,WNW,293,0.0,0.0,25,0.00,,CLR,0.00,VWS V14.00,2013-07-03 06:56:00,